| time (UTC) | temp F | wind direction | speed MPH | gust MPH | rain 1hr in | rain 24hr in | rain mn in | humidity % | barometer mb |
| 20260506174522 | 63 | 193 | 4.0 | 13.0 | 0.01 | 0.01 | 0.01 | 85 | 1005.6 |
| 20260506173027 | 64 | 159 | 8.0 | 16.0 | 0.01 | 0.01 | 0.01 | 82 | 1006.3 |
| 20260506171520 | 65 | 177 | 6.0 | 17.0 | 0.00 | 0.00 | 0.00 | 79 | 1006.6 |
| 20260506170021 | 66 | 207 | 8.0 | 21.0 | 0.00 | 0.00 | 0.00 | 76 | 1006.7 |
| 20260506164519 | 68 | 203 | 10.0 | 20.0 | 0.00 | 0.00 | 0.00 | 72 | 1006.5 |
| 20260506163025 | 69 | 188 | 5.0 | 15.0 | 0.00 | 0.00 | 0.00 | 71 | 1006.2 |
| 20260506161517 | 69 | 183 | 7.0 | 17.0 | 0.00 | 0.00 | 0.00 | 70 | 1006.4 |
| 20260506160015 | 68 | 171 | 2.0 | 14.0 | 0.00 | 0.00 | 0.00 | 72 | 1006.8 |
| 20260506154510 | 68 | 168 | 5.0 | 15.0 | 0.00 | 0.00 | 0.00 | 72 | 1007.1 |
| 20260506153007 | 67 | 172 | 2.0 | 12.0 | 0.00 | 0.00 | 0.00 | 73 | 1007.2 |
| 20260506151506 | 67 | 168 | 5.0 | 15.0 | 0.00 | 0.00 | 0.00 | 75 | 1007.2 |
| 20260506150002 | 66 | 202 | 6.0 | 14.0 | 0.00 | 0.00 | 0.00 | 76 | 1007.6 |
| 20260506144503 | 65 | 165 | 5.0 | 14.0 | 0.00 | 0.00 | 0.00 | 77 | 1007.7 |
| 20260506143100 | 65 | 251 | 4.0 | 13.0 | 0.00 | 0.00 | 0.00 | 78 | 1007.7 |
| 20260506141558 | 64 | 150 | 7.0 | 13.0 | 0.00 | 0.00 | 0.00 | 79 | 1007.7 |
| 20260506140058 | 64 | 168 | 4.0 | 16.0 | 0.00 | 0.00 | 0.00 | 80 | 1007.7 |
| 20260506134552 | 63 | 157 | 5.0 | 13.0 | 0.00 | 0.00 | 0.00 | 81 | 1007.7 |
| 20260506133049 | 62 | 191 | 4.0 | 13.0 | 0.00 | 0.00 | 0.00 | 82 | 1007.6 |
| 20260506131553 | 62 | 180 | 6.0 | 16.0 | 0.00 | 0.00 | 0.00 | 83 | 1007.8 |
| 20260506130101 | 61 | 159 | 7.0 | 15.0 | 0.00 | 0.00 | 0.00 | 83 | 1007.8 |
| 20260506124554 | 61 | 169 | 8.0 | 15.0 | 0.00 | 0.00 | 0.00 | 83 | 1008.2 |
| 20260506123046 | 61 | 137 | 3.0 | 11.0 | 0.00 | 0.00 | 0.00 | 84 | 1008.2 |
| 20260506121546 | 60 | 196 | 2.0 | 12.0 | 0.00 | 0.00 | 0.00 | 84 | 1008.2 |
| 20260506120046 | 60 | 167 | 5.0 | 15.0 | 0.00 | 0.00 | 0.00 | 84 | 1008.3 |
| 20260506114545 | 60 | 180 | 4.0 | 13.0 | 0.00 | 0.00 | 0.00 | 84 | 1008.2 |
| 20260506113051 | 60 | 210 | 6.0 | 13.0 | 0.00 | 0.00 | 0.00 | 86 | 1008.2 |
| 20260506111543 | 59 | 194 | 6.0 | 11.0 | 0.00 | 0.00 | 0.00 | 87 | 1008.2 |
| 20260506110051 | 58 | 171 | 5.0 | 10.0 | 0.00 | 0.00 | 0.00 | 87 | 1008.6 |
| 20260506104547 | 58 | 195 | 5.0 | 10.0 | 0.00 | 0.00 | 0.00 | 87 | 1008.6 |
| 20260506103045 | 58 | 178 | 4.0 | 12.0 | 0.00 | 0.00 | 0.00 | 87 | 1008.4 |
| 20260506101548 | 58 | 171 | 5.0 | 12.0 | 0.00 | 0.00 | 0.00 | 87 | 1008.2 |
| 20260506100045 | 58 | 161 | 4.0 | 15.0 | 0.00 | 0.00 | 0.00 | 86 | 1008.2 |
| 20260506094528 | 58 | 186 | 5.0 | 14.0 | 0.00 | 0.00 | 0.00 | 86 | 1008.2 |
| 20260506093038 | 58 | 190 | 3.0 | 10.0 | 0.00 | 0.00 | 0.00 | 85 | 1008.2 |
| 20260506091625 | 58 | 180 | 5.0 | 12.0 | 0.00 | 0.00 | 0.00 | 85 | 1008.2 |
| 20260506090025 | 58 | 173 | 7.0 | 12.0 | 0.00 | 0.00 | 0.00 | 84 | 1008.2 |
| 20260506084521 | 58 | 198 | 5.0 | 15.0 | 0.00 | 0.00 | 0.00 | 83 | 1008.2 |
| 20260506083017 | 59 | 203 | 4.0 | 10.0 | 0.00 | 0.00 | 0.00 | 83 | 1008.4 |
| 20260506081515 | 59 | 164 | 5.0 | 11.0 | 0.00 | 0.00 | 0.00 | 82 | 1008.3 |
| 20260506073018 | 60 | 140 | 4.0 | 11.0 | 0.00 | 0.00 | 0.00 | 80 | 1008.3 |
| 20260506071509 | 60 | 178 | 3.0 | 11.0 | 0.00 | 0.00 | 0.00 | 80 | 1008.3 |
| 20260506061600 | 61 | 148 | 5.0 | 17.0 | 0.00 | 0.00 | 0.00 | 77 | 1007.9 |
| 20260506044638 | 63 | 181 | 6.0 | 13.0 | 0.00 | 0.00 | 0.00 | 71 | 1008.3 |
| 20260506043046 | 63 | 186 | 4.0 | 16.0 | 0.00 | 0.00 | 0.00 | 71 | 1008.3 |
| 20260506041556 | 63 | 183 | 4.0 | 15.0 | 0.00 | 0.00 | 0.00 | 71 | 1008.3 |
| 20260506040040 | 63 | 201 | 7.0 | 13.0 | 0.00 | 0.00 | 0.00 | 70 | 1008.3 |
| 20260506034605 | 63 | 159 | 6.0 | 12.0 | 0.00 | 0.00 | 0.00 | 70 | 1008.4 |
| 20260506033039 | 63 | 231 | 8.0 | 14.0 | 0.00 | 0.00 | 0.00 | 69 | 1008.6 |
| 20260506031542 | 63 | 167 | 9.0 | 20.0 | 0.00 | 0.00 | 0.00 | 69 | 1008.6 |
| 20260506030040 | 63 | 165 | 7.0 | 12.0 | 0.00 | 0.00 | 0.00 | 68 | 1008.7 |
| 20260506024539 | 64 | 163 | 4.0 | 12.0 | 0.00 | 0.00 | 0.00 | 68 | 1008.6 |
| 20260506023059 | 64 | 171 | 4.0 | 17.0 | 0.00 | 0.00 | 0.00 | 67 | 1008.4 |
| 20260506021537 | 64 | 168 | 4.0 | 14.0 | 0.00 | 0.00 | 0.00 | 66 | 1008.3 |
| 20260506020039 | 65 | 148 | 7.0 | 17.0 | 0.00 | 0.00 | 0.00 | 65 | 1008.3 |
| 20260506014537 | 65 | 171 | 8.0 | 16.0 | 0.00 | 0.00 | 0.00 | 64 | 1008.3 |
| 20260506013039 | 66 | 176 | 10.0 | 22.0 | 0.00 | 0.00 | 0.00 | 63 | 1008.2 |
| 20260506011536 | 66 | 165 | 6.0 | 16.0 | 0.00 | 0.00 | 0.00 | 63 | 1007.8 |
| 20260506010041 | 67 | 162 | 8.0 | 15.0 | 0.00 | 0.00 | 0.00 | 62 | 1007.7 |
| 20260506004556 | 68 | 206 | 5.0 | 18.0 | 0.00 | 0.00 | 0.00 | 61 | 1007.6 |
| 20260506003044 | 68 | 178 | 6.0 | 16.0 | 0.00 | 0.00 | 0.00 | 61 | 1007.3 |
| 20260506001538 | 69 | 182 | 4.0 | 20.0 | 0.00 | 0.00 | 0.00 | 60 | 1007.2 |
| 20260506000033 | 69 | 161 | 7.0 | 15.0 | 0.00 | 0.00 | 0.00 | 59 | 1006.7 |
| 20260505234554 | 70 | 166 | 7.0 | 21.0 | 0.00 | 0.00 | 0.00 | 58 | 1006.6 |
| 20260505233037 | 71 | 183 | 7.0 | 20.0 | 0.00 | 0.00 | 0.00 | 57 | 1006.3 |
| 20260505231534 | 71 | 189 | 7.0 | 18.0 | 0.00 | 0.00 | 0.00 | 56 | 1006.1 |
| 20260505230039 | 72 | 171 | 10.0 | 23.0 | 0.00 | 0.00 | 0.00 | 55 | 1006.1 |
| 20260505224534 | 73 | 153 | 10.0 | 22.0 | 0.00 | 0.00 | 0.00 | 54 | 1005.7 |
| 20260505223033 | 73 | 185 | 8.0 | 21.0 | 0.00 | 0.00 | 0.00 | 53 | 1005.7 |
| 20260505221530 | 74 | 160 | 10.0 | 21.0 | 0.00 | 0.00 | 0.00 | 52 | 1005.5 |
| 20260505220041 | 75 | 268 | 10.0 | 25.0 | 0.00 | 0.00 | 0.00 | 51 | 1005.5 |
| 20260505214536 | 76 | 183 | 10.0 | 23.0 | 0.00 | 0.00 | 0.00 | 50 | 1005.1 |
| 20260505213028 | 76 | 169 | 10.0 | 23.0 | 0.00 | 0.00 | 0.00 | 50 | 1005.1 |
| 20260505211528 | 77 | 155 | 12.0 | 22.0 | 0.00 | 0.00 | 0.00 | 49 | 1005.2 |
| 20260505210027 | 77 | 169 | 10.0 | 22.0 | 0.00 | 0.00 | 0.00 | 49 | 1005.1 |
| 20260505204527 | 78 | 205 | 12.0 | 29.0 | 0.00 | 0.00 | 0.00 | 48 | 1004.8 |
| 20260505203026 | 79 | 175 | 8.0 | 30.0 | 0.00 | 0.00 | 0.00 | 47 | 1004.7 |
| 20260505201526 | 80 | 153 | 10.0 | 28.0 | 0.00 | 0.00 | 0.00 | 46 | 1004.8 |
| 20260505200026 | 81 | 200 | 11.0 | 24.0 | 0.00 | 0.00 | 0.00 | 44 | 1004.8 |
| 20260505194533 | 82 | 188 | 9.0 | 23.0 | 0.00 | 0.00 | 0.00 | 44 | 1004.7 |
| 20260505193035 | 82 | 196 | 11.0 | 26.0 | 0.00 | 0.00 | 0.00 | 43 | 1004.8 |
| 20260505191527 | 82 | 176 | 7.0 | 26.0 | 0.00 | 0.00 | 0.00 | 45 | 1004.9 |
| 20260505190022 | 82 | 194 | 6.0 | 25.0 | 0.00 | 0.00 | 0.00 | 44 | 1005.1 |
| 20260505184520 | 82 | 148 | 13.0 | 26.0 | 0.00 | 0.00 | 0.00 | 44 | 1005.1 |
| 20260505183017 | 82 | 172 | 14.0 | 25.0 | 0.00 | 0.00 | 0.00 | 45 | 1005.6 |
| 20260505181516 | 82 | 118 | 7.0 | 20.0 | 0.00 | 0.00 | 0.00 | 45 | 1005.4 |
| 20260505180013 | 82 | 184 | 7.0 | 22.0 | 0.00 | 0.00 | 0.00 | 45 | 1005.6 |